カタログに戻る

KUIPER-00200

運用中通信LEO
NORAD 67772·PAYLOAD·🇺🇸 United States

打ち上げ Feb 12, 2026 から Guiana Space Centre

Loading…

次のパス (今後24時間)

TLE

最新Source: CelesTrak SupGP

元期: Sep 14, 2026, 21:23 UTC

1 67772C 26030J   26257.89160880  .00007023  00000+0  91949-3 0  2575
2 67772  51.8974  68.9850 0000678 106.8244  27.8509 14.79915974    15

AllMySatでKUIPER-00200をリアルタイム追跡

Download on the App Store